Location: Devore Heights
(34.2372°N, 117.4156°W)
Time: 06:49:17
(UTC+00:00)

Vanguard 1 Rocket - Pass Details

Date: 15 September 2024
Orbit: 650 x 4218 km, 34.3° (Epoch: 09 October)

Event Time Altitude Azimuth Distance (km) Brightness Sun altitude
Rises 12:26:31 0° 257° (WSW) 5,643 - -14.5°
Reaches altitude 10° 12:29:29 10° 257° (WSW) 4,998 - -13.9°
Exits shadow 12:31:02 16° 257° (WSW) 4,692 10.3 -13.5°
Maximum altitude 12:45:59 88° 170° (S) 3,563 10.3 -10.5°
Drops below altitude 10° 13:12:31 10° 85° (E) 7,402 14.0 -5.1°
Sets 13:18:10 0° 86° (E) 8,322 15.6 -3.9°
